DELTA 1 DEB, 40768

Orbit data source: Space-Track

DELTA 1 DEB, 40768 is space debris in SSO originally from a launch on Thu, 29 Jul 1976 UTC launched from the Air Force Western Test Range (AFWTR). Debris objects in space refer to the collection of defunct objects orbiting the Earth. Examples of debris include non-operational satellites, rocket bodies, and fragments generated from explosions, collisions, or faulty payload assembly.

Loading next visibility...
Identifier
40768, 1976-077GM
Orbit
SSO
Country
Flag of USUS
Related business
Manufacturer
Unknown
Mission
Spacecraft
Bus & Motor
Unknown
Mass
Unknown
Launch date (UTC)
1976-07-29 (49 years ago)
Launch vehicle
Unknown
Launch site
Air Force Western Test Range (AFWTR)
Object type
Payload
Rocket body
Debris
Shape & HBR
Unknown shape, 0.1 m
Radar Cross Section
Small (<0.1 m²)

Expand to show TLE details & history
Last TLE update: 1 week ago

TLE from 1 week ago
0 DELTA 1 DEB
1 40768U 76077GM  25295.21587050  .00000572  00000-0  33518-2 0  9999
2 40768 101.3801 276.0484 0048420 147.6945 212.7115 12.63948180548981
Epoch: 2025-10-22T05:10Z
TLE epoch observation values (Epoch: 2025-10-22T05:10:51.211Z)
Latitude
-0.00002°
Longitude
167.44236°
Altitude
1,441.071 km
Speed
7.127 km/s
True Right ascension
18h 24m 11s
True Declination
0° 00' 00"
Sunlit
Object was in daylight at epoch
Visualization orbit readout
Latitude
Unknown
Longitude
Unknown
Altitude
Unknown
Speed
Unknown
Apparent Right ascension
Unknown
Apparent Declination
Unknown
Sunlit
N/A
Visualization observer readout
Local Sidereal Time
05:12:03
Azimuth
Unknown
Elevation
Unknown
Doppler factor
Unknown
Orbital elements
Apogee altitude
1,441.88 km
Perigee altitude
1,366.515 km
Semi-major axis
7,782.335 km
Eccentricity
0.00484
Inclination
101.3801°
RAAN
276.0484°
Arg. of periapsis
147.6945°
True anomaly
212.41317°
Mean anomaly
212.7115°
Eccentric anomaly
212.56219°
Mean motion
3.16139 °/min
Orbital period
113.87 mins
BSTAR
0.0033518
Loading maneuver chart data...
Computing Atmospheric mass density...
Loading historical data...
Loading historical data...
Loading historical data...
Loading historical data...
Loading historical data...
Loading historical data...
Loading historical data...

Documentation

Showing up to 5 results
|